Wind_Speed
27 27 27 28 28 28 27 25 24 22 22 22 22 23 23 23 22 21 20 20 18 18 19 18 18 18 18 18 19 19 19 19 18 18 17 16 15 15 15 15 15 15 14 13 12 12 11 11 11
28 29 29 30 30 29 27 26 26 24 25 25 25 26 25 25 24 23 22 22 21 20 20 20 20 19 20 20 20 20 21 21 21 20 19 18 17 17 17 17 17 17 16 15 14 14 13 13 12
29 30 31 32 32 29 28 27 27 26 27 28 28 28 28 27 26 25 24 24 23 23 22 22 21 21 21 21 22 22 22 23 23 22 21 20 19 19 19 19 19 18 18 17 17 16 16 15 14
30 31 33 33 33 30 29 28 29 29 29 30 30 30 30 30 28 27 26 26 25 25 24 24 23 23 23 23 24 24 24 24 25 24 24 23 21 21 21 20 20 20 20 19 19 18 18 17 16
30 32 33 33 32 30 30 30 30 30 31 32 32 32 32 32 31 29 28 29 28 28 27 26 25 25 24 25 25 25 25 26 26 27 26 26 24 23 22 22 22 21 21 21 20 20 19 19 18
30 32 33 32 31 31 31 31 32 32 33 33 34 34 34 33 33 32 31 31 31 30 29 28 27 27 27 26 26 27 27 27 28 29 29 28 27 26 25 24 24 23 23 22 22 21 21 21 20
31 31 32 32 32 31 31 32 33 33 34 34 35 35 35 35 35 34 33 32 32 32 31 30 29 29 28 27 27 28 28 29 29 30 30 30 29 28 27 26 26 25 24 24 23 23 23 23 22
29 31 32 32 33 32 32 32 34 34 34 35 36 37 37 36 36 36 34 33 33 33 32 31 30 30 29 29 29 29 29 30 30 31 31 31 31 30 29 28 27 27 26 26 25 25 24 24 23
29 31 32 32 33 33 33 34 34 34 34 34 34 36 37 37 36 36 35 35 34 34 33 33 32 30 30 31 30 30 31 32 32 31 31 31 32 32 31 30 29 28 28 27 27 26 26 26 25
28 30 31 32 34 34 34 35 34 35 34 34 34 35 35 35 35 35 35 35 35 34 34 34 34 32 31 32 32 32 33 34 34 34 33 32 32 32 32 31 31 30 29 29 29 28 28 28 27
27 29 31 32 33 34 34 34 34 35 34 33 33 33 33 33 34 35 35 35 35 34 34 34 34 33 33 33 33 33 34 35 35 35 35 33 33 33 33 33 32 32 31 31 30 31 30 29 29
26 27 29 31 32 33 33 33 34 33 31 31 31 31 31 31 34 35 35 34 35 34 34 34 34 34 34 34 33 33 35 36 36 36 37 36 35 34 34 34 33 33 32 31 31 32 31 31 30
25 26 26 27 29 30 30 30 31 30 29 29 28 29 29 29 32 34 34 34 34 35 35 34 34 34 34 34 34 33 35 36 37 37 38 37 36 36 36 35 34 33 33 33 31 32 31 31 30
24 24 24 25 25 25 26 26 27 27 28 28 27 28 29 29 30 31 33 34 34 34 34 34 35 35 35 34 35 35 35 37 38 38 39 38 37 37 37 37 36 35 34 34 33 33 33 32 32
23 23 22 21 22 23 24 25 26 26 27 28 28 27 28 27 28 30 32 33 33 34 33 33 34 35 36 35 35 36 36 37 38 39 40 40 39 39 39 38 38 37 35 33 33 33 34 34 33
22 20 20 19 20 22 24 24 26 27 26 27 28 28 28 28 28 29 31 32 32 33 33 33 33 34 36 37 36 36 37 37 38 39 40 41 40 39 39 39 39 38 37 35 32 32 33 33 33
20 19 18 19 20 21 23 23 24 26 26 27 28 28 28 28 28 30 31 32 32 33 34 33 33 35 35 36 36 36 37 36 36 37 38 40 40 40 39 39 39 39 38 37 36 34 33 33 34
20 19 17 18 19 20 21 23 24 25 26 27 28 28 27 27 28 29 30 31 32 32 34 34 34 35 35 35 36 36 36 37 37 37 37 39 39 40 40 40 39 38 38 37 38 36 35 35 35
18 18 17 16 18 19 20 22 23 24 25 26 27 28 27 27 28 29 30 31 31 32 34 35 34 34 35 35 34 35 35 36 37 37 37 39 39 39 39 40 39 39 39 38 38 37 36 36 36
16 15 15 15 16 17 19 20 20 22 24 25 26 26 26 25 27 27 28 30 31 32 32 33 35 34 34 35 35 36 36 36 37 37 37 38 39 38 39 40 40 40 39 39 39 39 38 37 36
15 15 14 13 14 15 17 19 21 21 23 24 24 25 25 26 26 28 29 29 29 30 31 32 33 33 34 35 35 36 35 35 36 36 36 37 38 38 38 39 39 39 39 40 40 40 39 38 38
14 14 14 14 14 15 16 19 19 20 21 23 23 24 24 25 26 27 29 30 29 29 30 31 32 34 35 36 36 36 35 35 35 36 36 35 36 38 39 39 39 39 40 40 40 41 40 39 38
14 14 15 15 16 16 18 19 19 19 20 21 22 21 21 23 25 26 28 29 29 28 28 29 30 32 33 35 35 35 35 35 35 35 36 36 36 37 39 39 39 40 41 40 40 41 41 40 39
14 14 15 16 17 17 18 19 19 19 20 22 22 21 21 23 24 26 27 29 29 29 28 29 30 31 32 33 34 35 34 34 34 35 35 35 36 37 38 40 38 38 40 40 40 40 40 40 40
14 15 15 17 17 17 17 19 19 18 19 21 22 22 22 23 24 26 27 28 29 28 28 28 30 30 31 32 32 34 34 33 33 35 36 36 37 37 38 38 39 39 39 39 40 40 40 41 40
14 14 16 17 17 17 17 19 18 17 17 19 20 21 22 23 23 24 26 27 29 28 28 28 29 29 30 31 32 34 34 34 34 34 35 35 36 36 37 39 40 41 41 40 40 41 41 42 41
14 14 15 17 18 18 17 18 18 18 18 18 19 20 22 22 22 22 24 26 27 27 26 26 27 29 30 31 32 33 33 33 33 33 33 33 35 36 37 39 40 41 40 40 40 40 41 42 42
14 15 15 17 18 19 19 19 19 18 18 18 19 20 21 21 21 21 22 23 25 26 26 26 26 28 29 31 31 32 33 33 32 32 32 32 34 36 36 37 38 40 41 40 41 41 41 40 40
15 15 16 18 18 19 19 18 18 17 17 18 18 19 19 19 20 21 21 23 24 25 26 26 25 26 28 29 31 30 31 32 31 31 31 31 32 34 35 36 36 37 39 40 40 40 40 40 39
16 17 17 18 18 18 19 19 18 18 17 18 19 19 19 20 20 21 21 22 23 24 24 25 25 25 26 27 29 31 30 30 30 30 31 31 32 32 32 33 34 36 37 38 39 38 38 38 38
Wind_Direction
248 247 247 247 247 248 249 249 249 247 245 244 243 243 243 243 244 245 245 244 246 247 247 246 244 245 246 245 243 240 239 239 240 241 244 242 241 242 242 244 247 247 248 249 253 257 262 266 270
248 247 247 247 248 249 250 250 249 248 248 245 245 244 244 245 244 244 244 245 246 247 247 246 244 244 246 246 244 242 242 241 242 242 243 245 244 242 244 245 247 247 249 251 254 258 262 264 268
248 247 247 247 248 251 252 251 250 249 249 248 247 246 246 246 245 245 244 246 247 248 248 247 247 246 246 246 245 243 242 242 242 244 243 244 245 244 245 248 249 248 250 252 255 259 262 263 265
249 249 248 248 250 252 253 252 250 248 249 249 249 249 248 247 246 246 246 246 247 248 248 246 246 247 246 246 246 245 244 242 242 243 243 243 245 245 247 249 249 251 252 253 256 259 261 262 263
250 250 249 249 250 252 252 251 249 248 249 248 249 249 249 248 248 247 247 247 248 249 250 248 247 247 247 246 247 246 245 245 245 244 243 244 245 246 247 249 250 252 254 254 256 258 259 261 263
251 250 250 250 250 251 251 251 250 251 251 250 251 251 250 248 247 247 247 248 248 249 249 249 249 247 247 247 247 246 246 246 246 246 244 244 245 247 248 248 251 252 253 255 256 258 258 260 262
254 252 252 252 250 250 252 254 252 253 253 252 252 252 251 249 248 247 247 247 248 249 248 249 249 249 249 249 248 247 247 247 246 245 245 245 245 247 249 249 250 251 253 254 255 257 258 260 261
257 254 253 253 252 252 254 256 255 254 253 253 252 252 250 249 248 248 247 246 247 247 248 247 248 248 249 249 249 248 247 246 246 245 245 246 246 246 248 250 250 251 253 254 256 258 259 259 260
261 257 256 255 255 255 256 258 256 254 254 253 252 251 250 248 246 245 245 245 245 246 246 247 247 248 250 250 249 248 247 245 244 244 245 245 246 247 248 250 250 251 252 253 255 258 258 258 259
264 259 258 257 256 256 256 257 256 252 252 252 251 249 247 245 242 241 242 243 243 245 246 248 248 248 250 251 250 248 246 244 243 243 243 244 245 247 249 250 250 251 253 254 255 257 257 258 260
268 265 261 259 258 257 257 257 256 252 251 249 248 246 246 244 241 239 239 241 242 244 246 248 249 249 250 251 250 248 246 244 243 242 242 243 245 246 248 249 250 251 252 253 255 256 257 258 259
272 269 266 263 260 258 257 256 254 251 248 244 244 243 243 244 242 240 238 240 242 243 246 248 249 250 251 251 249 248 245 243 242 242 242 242 244 245 247 249 250 251 252 253 255 255 256 258 260
276 272 268 266 261 257 254 251 249 245 242 240 239 240 241 242 242 239 237 239 241 243 245 248 249 251 252 250 247 247 245 242 241 242 241 242 244 245 247 249 251 251 252 252 254 255 256 258 260
280 274 270 268 261 254 248 246 244 240 238 236 236 238 241 242 242 240 238 238 241 243 246 248 250 252 252 251 247 245 244 242 241 241 242 243 244 245 246 248 251 252 253 254 254 256 257 258 260
284 279 271 263 257 250 244 241 239 235 235 234 235 237 240 241 242 241 240 241 242 244 247 249 250 252 251 251 249 246 244 242 242 242 242 241 243 244 245 247 250 252 254 256 257 257 258 258 259
287 279 267 258 255 250 245 243 239 234 235 235 235 237 238 240 241 242 242 244 243 244 248 250 250 250 251 250 250 249 246 244 243 243 243 242 243 243 244 246 248 251 252 253 255 257 259 260 260
287 275 266 260 257 253 249 245 239 237 236 236 235 237 240 242 242 245 245 247 248 248 249 251 250 249 250 250 249 249 247 245 245 245 245 244 243 243 243 245 247 249 251 253 255 258 261 262 261
289 277 267 261 259 256 252 244 241 237 236 238 239 240 242 244 244 244 245 247 251 253 251 251 252 250 249 249 249 249 248 245 245 246 246 245 245 246 245 247 248 249 252 253 255 259 261 263 263
293 282 270 262 261 258 252 244 244 241 239 238 239 242 245 248 247 247 247 248 251 253 252 249 251 250 248 247 249 248 247 247 246 247 247 247 247 248 247 250 251 253 255 256 258 260 262 265 265
293 286 277 266 261 260 253 243 247 245 242 239 239 242 247 248 247 249 249 251 253 253 253 252 251 251 248 247 249 247 246 247 247 247 248 248 247 248 249 250 252 255 256 258 261 263 264 265 267
293 288 279 270 260 256 253 245 249 248 246 244 244 242 247 251 252 251 251 252 254 254 253 253 254 252 251 248 249 248 247 247 247 248 249 250 249 248 250 250 251 253 254 257 259 262 263 265 268
296 287 276 270 266 258 257 254 253 255 250 249 248 246 248 252 254 252 255 254 254 253 252 253 255 253 251 250 250 248 248 248 249 249 250 251 250 249 250 252 252 252 255 257 259 261 262 264 268
300 290 279 273 267 261 259 259 255 255 254 252 249 250 253 253 257 254 253 253 253 251 252 251 253 252 250 250 248 248 249 250 250 249 250 252 251 249 250 252 253 253 254 256 259 261 262 264 265
301 297 286 278 269 265 264 265 261 262 260 256 255 256 258 257 258 257 255 253 252 251 253 253 254 253 251 250 248 247 249 250 250 250 250 253 252 250 251 252 254 255 255 257 258 260 261 263 264
301 300 293 282 274 273 270 268 267 267 265 262 260 261 263 264 260 258 256 254 253 253 254 255 255 254 252 250 249 248 248 249 249 250 252 254 254 252 253 252 253 255 256 256 257 259 260 262 264
303 302 297 290 285 280 273 272 272 268 266 266 266 265 264 265 261 261 258 257 255 255 255 256 256 253 253 250 250 250 248 248 250 252 253 254 254 254 253 253 253 255 256 256 257 259 260 261 262
304 302 300 296 292 287 279 275 270 270 270 271 270 264 264 265 264 262 259 255 255 256 257 257 255 253 252 251 252 252 250 249 252 255 256 257 257 257 256 256 253 254 255 257 258 259 260 261 262
300 298 296 298 295 289 285 280 274 271 273 273 271 267 266 265 264 262 260 256 255 258 259 259 258 254 254 252 253 254 253 252 254 255 257 259 259 258 258 258 257 257 257 258 258 261 261 261 261
299 295 294 296 295 290 286 282 277 277 278 278 275 272 271 267 263 262 260 258 257 259 259 260 259 257 257 255 253 254 255 255 256 258 259 261 263 262 261 259 258 257 257 257 258 259 261 261 261
299 296 296 295 295 291 287 286 281 279 280 279 278 274 273 270 267 266 264 262 262 262 260 261 261 258 258 259 255 255 257 258 258 259 261 263 264 266 265 265 262 259 258 258 258 259 260 259 260
Height
5824 5825 5827 5829 5830 5831 5833 5837 5839 5841 5842 5843 5843 5844 5845 5847 5849 5853 5853 5853 5853 5854 5855 5856 5858 5859 5860 5861 5862 5864 5865 5866 5867 5868 5869 5869 5870 5870 5871 5871 5872 5872 5872 5872 5872 5872 5872 5872 5871
5817 5819 5821 5822 5823 5825 5829 5831 5833 5836 5837 5837 5838 5839 5840 5841 5844 5846 5847 5848 5849 5850 5851 5853 5854 5855 5857 5858 5859 5860 5862 5863 5864 5865 5866 5866 5867 5868 5869 5869 5869 5869 5870 5870 5870 5870 5870 5870 5869
5810 5811 5813 5814 5816 5820 5824 5826 5828 5830 5830 5831 5832 5834 5835 5837 5839 5840 5842 5843 5845 5846 5847 5849 5850 5851 5852 5854 5855 5856 5858 5859 5860 5861 5862 5863 5864 5865 5865 5866 5866 5867 5867 5867 5867 5868 5867 5867 5867
5803 5804 5805 5807 5810 5815 5817 5820 5821 5823 5824 5825 5826 5828 5829 5832 5833 5835 5837 5838 5840 5841 5843 5844 5845 5846 5848 5849 5851 5852 5853 5855 5856 5857 5858 5859 5859 5861 5861 5862 5863 5864 5864 5864 5864 5864 5864 5864 5864
5795 5796 5797 5799 5804 5808 5810 5812 5813 5815 5816 5818 5819 5821 5823 5825 5827 5829 5831 5833 5834 5835 5837 5839 5840 5841 5843 5844 5846 5847 5849 5850 5851 5853 5854 5855 5856 5856 5857 5859 5860 5860 5860 5861 5861 5861 5861 5861 5861
5787 5787 5789 5792 5797 5800 5802 5803 5805 5807 5808 5810 5812 5813 5816 5818 5820 5821 5823 5826 5828 5829 5831 5833 5834 5835 5837 5839 5840 5842 5843 5845 5846 5847 5849 5850 5851 5852 5853 5854 5855 5856 5856 5857 5857 5857 5857 5857 5857
5779 5780 5781 5785 5788 5791 5794 5795 5796 5798 5799 5801 5803 5805 5807 5810 5811 5813 5815 5818 5820 5822 5824 5826 5828 5829 5831 5832 5834 5836 5837 5839 5840 5842 5843 5845 5846 5847 5848 5849 5850 5851 5852 5852 5853 5853 5853 5853 5853
5770 5772 5773 5776 5779 5782 5785 5785 5787 5789 5791 5792 5794 5795 5798 5801 5803 5804 5807 5809 5812 5814 5817 5819 5821 5822 5824 5826 5827 5829 5830 5832 5834 5835 5837 5839 5841 5842 5843 5844 5845 5846 5847 5848 5848 5848 5848 5848 5848
5762 5764 5765 5768 5769 5772 5774 5775 5777 5778 5780 5782 5783 5785 5788 5790 5792 5795 5798 5800 5803 5806 5808 5811 5813 5815 5817 5818 5820 5821 5823 5824 5826 5828 5830 5832 5834 5836 5837 5838 5839 5840 5841 5842 5843 5843 5843 5843 5843
5754 5755 5757 5759 5759 5761 5763 5764 5766 5768 5770 5771 5773 5774 5776 5779 5782 5785 5788 5791 5794 5797 5800 5802 5804 5807 5809 5810 5812 5813 5815 5816 5818 5821 5823 5825 5827 5829 5831 5832 5833 5834 5835 5836 5837 5837 5838 5838 5838
5746 5746 5748 5748 5749 5750 5751 5753 5755 5757 5759 5761 5763 5765 5767 5770 5773 5776 5779 5783 5786 5789 5791 5794 5796 5798 5800 5801 5803 5805 5806 5808 5811 5813 5816 5817 5820 5822 5824 5825 5826 5828 5829 5830 5831 5831 5832 5832 5833
5738 5738 5738 5738 5738 5739 5740 5742 5744 5746 5749 5751 5753 5756 5759 5761 5764 5767 5771 5774 5777 5780 5783 5785 5787 5789 5790 5792 5794 5796 5798 5800 5803 5805 5808 5810 5812 5815 5817 5818 5820 5821 5822 5823 5824 5824 5825 5826 5827
5731 5730 5729 5728 5728 5729 5730 5731 5733 5736 5739 5742 5745 5748 5751 5753 5756 5759 5762 5765 5768 5771 5774 5776 5778 5780 5781 5783 5785 5787 5789 5791 5794 5797 5799 5802 5804 5807 5809 5812 5813 5814 5816 5817 5817 5818 5819 5819 5820
5724 5722 5721 5720 5719 5720 5721 5723 5725 5728 5731 5735 5738 5741 5743 5746 5748 5751 5754 5758 5760 5763 5765 5767 5769 5771 5772 5773 5775 5778 5780 5782 5785 5788 5791 5794 5797 5799 5802 5804 5806 5807 5809 5810 5811 5811 5812 5812 5813
5717 5715 5714 5714 5713 5713 5715 5717 5719 5721 5724 5728 5732 5734 5737 5739 5741 5744 5746 5749 5752 5755 5757 5758 5760 5761 5762 5764 5766 5768 5771 5773 5776 5779 5782 5785 5788 5791 5793 5796 5798 5800 5801 5803 5803 5804 5805 5805 5806
5711 5709 5709 5709 5708 5708 5710 5711 5713 5715 5718 5722 5725 5727 5730 5732 5734 5736 5738 5741 5744 5746 5748 5749 5751 5752 5753 5755 5757 5759 5761 5764 5767 5770 5772 5776 5779 5783 5785 5787 5790 5792 5793 5795 5796 5797 5798 5798 5799
5705 5704 5703 5704 5703 5702 5704 5706 5708 5709 5712 5715 5718 5720 5723 5725 5727 5729 5731 5733 5736 5738 5739 5740 5742 5743 5744 5746 5748 5750 5752 5756 5758 5761 5764 5767 5770 5773 5776 5779 5781 5784 5785 5787 5788 5790 5790 5791 5791
5700 5699 5698 5698 5698 5698 5698 5700 5702 5704 5706 5709 5712 5714 5716 5719 5721 5722 5724 5726 5728 5729 5730 5731 5733 5734 5735 5737 5739 5741 5744 5747 5749 5752 5755 5758 5761 5764 5768 5771 5773 5775 5777 5778 5780 5781 5782 5783 5784
5696 5695 5695 5694 5693 5693 5694 5696 5696 5698 5700 5703 5705 5707 5710 5712 5714 5715 5717 5718 5720 5721 5722 5723 5724 5725 5727 5729 5731 5733 5735 5738 5741 5744 5747 5750 5753 5756 5759 5762 5764 5766 5769 5770 5772 5773 5774 5775 5775
5693 5691 5691 5691 5690 5689 5690 5691 5692 5693 5695 5697 5699 5702 5704 5706 5707 5708 5709 5711 5712 5714 5714 5715 5716 5718 5719 5721 5723 5725 5728 5730 5733 5736 5738 5741 5744 5747 5750 5753 5755 5757 5760 5762 5763 5764 5765 5766 5767
5690 5688 5688 5687 5687 5686 5686 5687 5688 5689 5689 5691 5693 5695 5697 5699 5700 5702 5703 5704 5705 5706 5707 5708 5709 5710 5711 5713 5715 5717 5720 5723 5726 5728 5731 5733 5736 5739 5741 5744 5746 5748 5751 5753 5755 5756 5757 5758 5758
5687 5685 5684 5683 5683 5683 5683 5683 5685 5684 5685 5686 5687 5689 5691 5692 5693 5694 5695 5697 5697 5698 5699 5700 5701 5703 5704 5705 5707 5710 5712 5715 5717 5720 5723 5725 5727 5729 5733 5734 5736 5739 5742 5744 5745 5746 5748 5749 5749
5683 5682 5681 5680 5680 5680 5679 5679 5681 5680 5681 5681 5682 5684 5685 5686 5687 5687 5688 5689 5690 5691 5692 5693 5694 5695 5696 5698 5700 5702 5705 5707 5709 5712 5715 5717 5719 5721 5724 5726 5727 5729 5732 5734 5735 5736 5738 5739 5740
5680 5679 5678 5676 5676 5676 5676 5675 5676 5676 5676 5676 5677 5678 5679 5680 5680 5681 5682 5683 5683 5684 5685 5686 5687 5688 5689 5691 5693 5695 5698 5700 5702 5704 5707 5709 5710 5713 5715 5716 5718 5720 5722 5724 5725 5727 5728 5729 5730
5677 5676 5674 5671 5671 5672 5671 5670 5672 5672 5672 5671 5672 5673 5673 5673 5674 5674 5675 5676 5677 5677 5678 5679 5680 5681 5683 5684 5686 5688 5690 5692 5694 5697 5698 5700 5702 5704 5705 5707 5709 5710 5712 5714 5715 5717 5718 5719 5720
5673 5672 5670 5668 5667 5667 5667 5665 5668 5667 5667 5666 5666 5666 5666 5667 5667 5667 5668 5668 5669 5670 5671 5672 5673 5675 5676 5677 5679 5681 5682 5684 5686 5688 5690 5692 5693 5695 5696 5698 5699 5700 5702 5704 5705 5706 5708 5709 5710
5670 5668 5667 5665 5662 5662 5661 5661 5662 5662 5662 5661 5661 5661 5661 5661 5661 5661 5661 5662 5662 5663 5664 5665 5666 5668 5669 5670 5671 5673 5675 5676 5678 5680 5682 5683 5684 5685 5686 5688 5689 5690 5691 5693 5694 5696 5697 5699 5700
5667 5665 5663 5661 5658 5656 5656 5657 5658 5657 5657 5657 5656 5655 5655 5655 5654 5654 5655 5656 5656 5657 5658 5658 5659 5660 5662 5663 5664 5665 5667 5669 5670 5671 5673 5674 5675 5675 5676 5678 5679 5680 5681 5683 5684 5686 5687 5688 5689
5664 5662 5659 5657 5654 5652 5650 5654 5653 5651 5651 5650 5650 5649 5649 5649 5648 5649 5649 5649 5650 5651 5652 5652 5653 5653 5654 5655 5656 5658 5659 5661 5662 5663 5664 5665 5665 5666 5667 5668 5669 5670 5671 5672 5674 5675 5676 5678 5679
5659 5658 5656 5654 5651 5648 5646 5650 5648 5647 5645 5644 5644 5643 5643 5643 5643 5643 5643 5644 5644 5645 5645 5646 5647 5647 5648 5648 5649 5650 5652 5653 5654 5655 5655 5656 5656 5657 5657 5658 5659 5660 5661 5661 5663 5664 5665 5667 5668